Content
SEND FEEDBACK

Daily
Averages
Monthly
Summary
United States of America

ELLENSBURG, WASHINGTON


Home > North America > United States > Washington
Elevation: 1766 feet     Latitude: 47 02N     Longitude: 120 31W

WEATHER
 
SELECT A DAY
Number of Records: 74,882;   Date Range: 8/17/97 - 12/27/14
 
SHARE

PRINT THIS DATA

[ ← Previous Day ]
WEATHER ALMANAC - JANUARY 31, 2013
[ Next Day → ]
[ °C ]   °F
Weather ElementAverageHighLow
Temperature45.6 °F52 °F (2:53 pm)41 °F (10:53 pm)
Dewpoint34.8 °F37 °F (6:53 pm)33.1 °F (10:53 am)
Humidity66.4 %76 % (8:53 pm)54 % (2:53 pm)
Barometer30.26 in30.31 in (8:53 am)30.23 in (3:53 pm)
Wind Speed12.6 mph20.7 mph (3:53 am)
Wind Gust27.6 mph (4:53 am)
Weather ElementAverage
Visibility10 mi
Wind DirectionWNW (307.7 °)

Weather ElementTotal
Precipitation---
Heating Degree Days18.5 (Base 65)
Averaged from 22 records on January 31, 2013
WEATHER CONDITIONS BREAKOUT
WIND DIRECTION BREAKOUT
WEATHER BY HOUR - JANUARY 31, 2013
[ °C ]   °F
Local TimeTemperatureDewpointHumidityBarometerVisibilityWind DirectionWind SpeedGust SpeedPrecipitationEventsConditions
1:53 AM44.1 °F35.1 °F71 %30.28 in10.0 miNW (310°)15.0 mphClear
2:53 AM45.0 °F35.1 °F68 %30.28 in10.0 miNW (310°)17.3 mphScattered Clouds
3:53 AM46.0 °F35.1 °F66 %30.27 in10.0 miNW (320°)20.7 mphClear
4:53 AM46.0 °F35.1 °F66 %30.27 in10.0 miNW (320°)19.6 mph27.6 mphClear
5:53 AM45.0 °F34.0 °F65 %30.28 in10.0 miNNW (330°)11.5 mphClear
6:53 AM44.1 °F34.0 °F68 %30.28 in10.0 miNW (320°)12.7 mphClear
7:53 AM44.1 °F34.0 °F68 %30.28 in10.0 miNW (310°)18.4 mph25.3 mphClear
8:53 AM44.1 °F34.0 °F68 %30.31 in10.0 miNW (310°)12.7 mphClear
9:53 AM45.0 °F34.0 °F65 %30.30 in10.0 miNW (310°)20.7 mphClear
10:53 AM46.9 °F33.1 °F59 %30.31 in10.0 miNW (310°)12.7 mph27.6 mphScattered Clouds
11:53 AM46.9 °F34.0 °F61 %30.28 in10.0 miWest (280°)8.1 mphClear
12:53 PM46.9 °F34.0 °F61 %30.26 in10.0 miNW (310°)8.1 mphScattered Clouds
1:53 PM48.0 °F34.0 °F58 %30.24 in10.0 miNW (310°)15.0 mphScattered Clouds
2:53 PM52.0 °F36.0 °F54 %30.24 in10.0 miWest (280°)11.5 mphMostly Cloudy
3:53 PM51.1 °F36.0 °F56 %30.23 in10.0 miNW (320°)12.7 mphOvercast
4:53 PM46.9 °F36.0 °F66 %30.23 in10.0 miWNW (300°)9.2 mphOvercast
5:53 PM45.0 °F36.0 °F71 %30.24 in10.0 miWest (260°)5.8 mphOvercast
6:53 PM46.0 °F37.0 °F71 %30.24 in10.0 miNW (310°)10.4 mph0.00 inOvercast
7:53 PM45.0 °F36.0 °F71 %30.23 in10.0 miWNW (300°)6.9 mphOvercast
8:53 PM42.1 °F35.1 °F76 %30.25 in10.0 miNW (320°)3.5 mphMostly Cloudy
10:53 PM41.0 °F34.0 °F76 %30.25 in10.0 miNW (320°)11.5 mphClear
11:53 PM41.0 °F34.0 °F76 %30.26 in10.0 miNW (310°)12.7 mphClear
Hourly data recorded from KELN, located miles away from Ellensburg, Washington







STORIES FROM OUR PARTNERS